Location: Gombori
(14.9797°N, 2.9419°W)
Time: 13:10:06
(UTC+00:00)

METEOR 2-17 DEB - Pass Details

Date: 03 June 2022
Orbit: 896 x 935 km, 82.5° (Epoch: 24 June)

Event Time Altitude Azimuth Distance (km) Brightness Sun altitude
Rises 22:20:43 0° 328° (NNW) 3,503 ? -44.0°
Reaches altitude 10° 22:24:02 10° 309° (NW) 2,562 ? -44.5°
Enters shadow 22:25:26 14° 296° (WNW) 2,285 ? -44.7°
